{"data":{"norad_id":65752,"epoch":"2026-09-20T09:19:26.279904Z","epoch_age_seconds":118359,"freshness":"FRESH","line1":"1 65752U 25216U   26263.38849861  .00017765  00000+0  53577-3 0  9992","line2":"2 65752  53.1575 146.3555 0000841 109.0510 251.0584 15.34393571 56356","mean_motion":15.34393571,"eccentricity":8.41e-5,"inclination_deg":53.1575,"raan_deg":146.3555,"arg_perigee_deg":109.051,"mean_anomaly_deg":251.0584,"bstar":0.00053577,"rev_number":5635,"period_min":93.848151296771,"perigee_km":462.14703234546,"apogee_km":463.29766488789,"semimajor_km":6840.8593486167,"source":"CELESTRAK","updated_at":"2026-09-21T09:00:35.710770Z"}}